Regional Weather Roundup
Issued by NWS

Home | Current Version | Previous Version | Graphics & Text | Print | Product List | Glossary On
Versions: 1 2 3 4 5 6 7 8 9 10 11 12 13 14 15 16 17 18 19 20 21 22 23 24 25 26 27
000
ASUS45 KCYS 302010
RWRWY

WYOMING REGIONAL WEATHER ROUNDUP
NATIONAL WEATHER SERVICE CHEYENNE WY
200 PM MDT MON MAY 30 2016

NOTE:  "FAIR" INDICATES FEW OR NO CLOUDS BELOW 12,000 FEET
WITH NO SIGNIFICANT WEATHER AND/OR OBSTRUCTIONS TO VISIBILITY.

WYZ001-302100-
YELLOWSTONE NATIONAL PARK

CITY           SKY/WX    TMP DP  RH WIND       PRES   REMARKS
LK YELLOWSTONE   N/A     52  25  35 W13G22    30.17S
W YELLOWSTONE  NOT AVBL

$$
WYZ002>013-054>058-071-098>099-302100-
NORTHERN WYOMING

CITY           SKY/WX    TMP DP  RH WIND       PRES   REMARKS
JACKSON        PTSUNNY   61  28  29 SW10G21   30.12F
CODY           PTSUNNY   57  46  67 N16G24    30.04R
GREYBULL       FAIR      67  40  37 N22G30    29.95R
WORLAND        FAIR      70  38  31 N6        29.95F
SHERIDAN       LGT RAIN  55  50  83 NW24G35   30.03R
BUFFALO        PTSUNNY   63  45  51 N10       30.02F
GILLETTE       FAIR      65  45  48 MISG      29.98F
HULETT         MOCLDY    55  50  82 N3        30.00S
NEWCASTLE      FAIR      70  39  32 NW22G31   29.95F

$$
WYZ014>020-022>026-101>103-302100-
CENTRAL WYOMING

CITY           SKY/WX    TMP DP  RH WIND       PRES   REMARKS
BIG PINEY      PTSUNNY   62  29  28 W15G25    30.15F
PINEDALE       FAIR      61  32  33 W17G26    30.15F
DUBOIS         MOCLDY    61  21  21 W31       30.09S
LANDER         FAIR      72  34  24 NW15G21   29.99F
RIVERTON       PTSUNNY   69  35  28 NW10      30.00F
CASPER         FAIR      68  42  38 MISG      30.01F
DOUGLAS          N/A    N/A N/A N/A MISG      30.01F

$$
WYZ021-027>030-104>119-302100-
SOUTHERN WYOMING

CITY           SKY/WX    TMP DP  RH WIND       PRES   REMARKS
EVANSTON       PTSUNNY   62  33  33 NW10G17   30.19F
KEMMERER         N/A     61  32  33 W21G29    30.18S
FORT BRIDGER   PTCLDY    66  34  30 W16G24    30.20F
ROCK SPRINGS   PTSUNNY   60  32  34 N8        30.13F
DIXON          MOCLDY    61  39  44 SW9       30.16F
RAWLINS        FAIR      68  29  23 W17G29    30.09F
SARATOGA       CLOUDY    54  37  54 SW12G26   30.14S
LARAMIE        FAIR      62  35  36 W16       30.09F
CHEYENNE       CLOUDY    56  46  69 NE7       30.05F
TORRINGTON     FAIR      76  41  28 NW15G22   29.92F
PINE BLUFFS    CLOUDY    63  34  34 N9        30.04R

$$




USA.gov is the U.S. government's official web portal to all federal, state and local government web resources and services.